Starlink 32283

operational
NORAD ID: 62425 Int'l Des: 2024-249 Owner: SPXS Country: US Constellation: starlink
LEOCIRCULAR

About Starlink 32283

Description loading...

Live Position

Loading 3D Globe...

Upcoming Passes

Altitude History

Altitude vs Time

uPlot chart will show altitude changes over time

Two-Line Element Set

1 62425U 24249S 25351.55699314 .00034408 00000-0 12537-2 0 9997
2 62425 43.0026 54.3558 0001328 265.8802 94.1898 15.27588867 55298
Epoch: Dec 17, 2025 • Age: 23 hours

Current Status

Altitude 482.3 km
Velocity 7.63 km/s
Sub-Earth Point 16.24°N, 56.67°W
Launch Date Dec 23, 2024
Age 0.9 years
Type internet

Technical Details

Classification Payload
Mass 730.00 kg
Dry Mass 700.00 kg
Total Mass 730.00 kg
Length 0.30 m
Diameter 4.10 m
Span 29.00 m
Shape Box + pan
Manufacturer SPXS
Bus Type Starlink V2M
Phase Status In Orbit
Owner/State SPXS/US

Large Constellations

Loading constellations...